Overview Statistics Trail Chart Weather Telemetry Raw packets
 

This is the latest recevied weather packets stored in our database for station/object SV9TNF-55. If no packets are shown the sender has not sent any weather packets the latest 10 day(s).

<< 7 8 9 10 11 12 13 >>
Time Temp. Humidity Pressure Rain* Wind** Luminosity Snow
1788536890 19.44° C 51% 1014.1 hPa 0 mm 4.02 m/s, 292° - -
1788536289 18.89° C 52% 1014.2 hPa 0 mm 2.68 m/s, 270° - -
1788535689 18.89° C 52% 1014.4 hPa 0 mm 2.68 m/s, 270° - -
1788535089 18.89° C 57% 1014.2 hPa 0 mm 4.92 m/s, 292° - -
1788534490 19.44° C 57% 1014.1 hPa 0 mm 5.81 m/s, 315° - -
1788533890 19.44° C 56% 1014.1 hPa 0 mm 6.71 m/s, 292° - -
1788533289 19.44° C 55% 1014 hPa 0 mm 5.36 m/s, 292° - -
1788532689 20° C 54% 1014 hPa 0 mm 4.92 m/s, 292° - -
1788532089 20° C 52% 1013.9 hPa 0 mm 4.92 m/s, 292° - -
1788531489 20° C 52% 1014 hPa 0 mm 6.71 m/s, 292° - -
1788530889 20° C 54% 1013.7 hPa 0 mm 5.81 m/s, 292° - -
1788530288 20.56° C 53% 1013.7 hPa 0 mm 6.26 m/s, 292° - -
1788529688 20.56° C 49% 1013.7 hPa 0 mm 6.71 m/s, 292° - -
1788529088 20.56° C 48% 1013.7 hPa 0 mm 7.6 m/s, 292° - -
1788528488 20.56° C 48% 1013.6 hPa 0 mm 7.15 m/s, 292° - -
1788527888 20.56° C 47% 1013.6 hPa 0 mm 7.6 m/s, 292° - -
1788527288 20.56° C 49% 1013.5 hPa 0 mm 7.15 m/s, 292° - -
1788526688 20.56° C 48% 1013.6 hPa 0 mm 8.05 m/s, 292° - -
1788526087 20.56° C 50% 1013.6 hPa 0 mm 7.15 m/s, 292° - -
1788525487 20.56° C 48% 1013.7 hPa 0 mm 7.6 m/s, 292° - -
1788524888 21.11° C 47% 1013.7 hPa 0 mm 7.15 m/s, 292° - -
1788524287 20.56° C 49% 1013.6 hPa 0 mm 6.26 m/s, 292° - -
1788523688 21.11° C 51% 1014 hPa 0 mm 6.26 m/s, 315° - -
1788523086 20.56° C 51% 1014 hPa 0 mm 6.71 m/s, 292° - -
1788522487 20.56° C 56% 1013.9 hPa 0 mm 6.71 m/s, 292° - -

* Rain latest hour (hover to see other rain measurements)
** Current wind speed in m/s (hover to see current wind gust speed)